Wind_Speed
26 28 29 27 25 27 29 30 32 31 32 34 37 39 41 44 47 49 51 54 57 60 62 65 67 69 71 73 74 75 75 76 76 76 76 76 75 74 73 72 71 70 70 69
28 29 30 27 26 28 29 31 33 35 36 38 41 43 46 48 51 53 56 58 62 64 67 69 72 74 75 76 77 78 78 78 78 77 76 75 73 72 71 70 69 68 67 66
30 29 30 28 28 30 31 33 35 37 39 42 44 47 50 52 55 58 61 63 66 69 71 73 75 77 79 79 80 80 79 79 78 76 74 72 71 70 68 67 67 66 65 64
33 31 30 29 31 32 34 36 38 41 43 46 48 51 54 57 59 62 65 68 70 73 75 77 79 80 81 81 81 80 79 77 75 73 71 69 68 66 66 65 63 63 61 60
35 34 32 30 34 36 38 40 41 44 46 49 52 55 57 60 63 66 69 71 74 76 79 80 82 82 82 81 79 78 75 73 70 69 67 65 63 62 61 60 59 59 57 57
36 37 37 36 38 39 42 43 45 48 50 53 56 59 60 63 67 69 72 75 77 79 81 82 82 82 80 78 76 74 71 69 66 64 62 60 59 58 58 57 56 55 53 53
36 39 40 41 42 43 45 48 50 52 55 58 60 63 66 68 71 73 76 78 80 81 81 81 80 79 77 74 72 70 67 64 62 59 58 57 56 55 55 54 53 51 50 50
38 40 42 43 45 46 49 51 54 56 59 62 64 67 69 71 73 75 77 79 80 81 80 78 76 75 73 70 68 65 63 60 57 56 55 54 54 53 52 51 49 48 47 47
40 42 44 46 47 49 52 55 57 60 63 65 67 69 72 73 75 77 78 79 80 79 77 74 72 71 69 66 64 61 59 56 55 53 52 52 52 50 49 47 46 45 45 44
43 44 46 48 50 52 55 58 61 63 65 68 70 72 73 75 76 77 78 78 77 76 74 70 68 66 65 63 61 59 57 55 53 52 51 50 49 47 46 45 44 43 42 42
45 46 49 50 53 55 58 60 63 65 67 69 72 73 75 76 77 77 76 75 74 72 70 68 65 63 61 60 59 57 55 53 51 49 48 46 45 44 43 42 42 42 41 41
47 48 51 53 55 57 60 62 64 67 69 70 72 74 75 76 76 75 74 72 70 69 67 65 63 60 58 58 57 55 53 50 48 46 45 44 42 41 41 41 40 40 41 40
50 51 53 55 58 60 62 64 66 68 70 72 73 74 74 74 73 72 70 69 68 66 65 63 60 58 56 55 54 52 50 48 46 45 44 43 42 41 39 38 38 39 39 38
52 54 55 57 59 62 64 66 68 69 70 71 72 73 73 72 71 69 67 66 65 64 62 61 58 56 54 53 51 49 48 46 45 44 43 42 41 40 39 37 36 36 36 36
54 56 58 60 62 64 66 67 68 69 70 70 70 71 71 70 68 66 65 64 63 61 60 59 56 54 52 51 49 47 45 43 42 42 41 40 39 38 38 37 37 36 34 34
56 57 59 61 63 65 66 67 68 69 69 69 69 68 68 67 66 64 63 63 61 59 58 56 53 51 50 49 46 44 43 42 41 41 40 39 38 37 36 36 36 35 33 32
57 58 60 62 64 65 66 67 67 68 68 68 68 67 66 65 63 62 61 60 59 57 56 54 51 49 48 47 45 43 41 40 40 39 38 37 37 36 35 35 35 33 32 31
59 61 62 64 65 65 65 66 66 67 67 67 66 65 64 64 63 61 60 58 55 53 52 51 49 48 47 45 43 41 40 39 38 37 36 36 36 35 34 34 34 32 30 29
60 62 63 63 64 65 66 66 66 66 66 66 66 64 63 62 62 60 58 56 53 51 49 48 47 46 44 43 41 39 38 36 36 35 35 34 34 34 33 33 31 30 28 27
61 62 63 64 64 65 66 66 66 66 65 65 64 63 61 60 59 57 54 52 51 50 47 46 44 43 41 40 38 36 35 34 33 33 32 32 32 32 31 31 30 28 28 27
62 63 64 65 65 65 66 66 66 65 64 63 63 61 59 57 55 53 51 49 47 46 44 43 42 40 38 37 35 33 33 32 32 31 31 31 31 30 30 29 28 27 27 27
64 64 65 65 65 65 65 65 65 64 63 61 60 58 56 53 51 49 47 46 44 43 42 40 39 37 35 34 32 31 31 31 30 30 30 30 29 29 29 28 27 26 26 26
64 65 65 65 65 65 64 63 63 62 60 58 56 54 52 50 48 46 43 42 42 40 39 38 37 34 32 31 31 30 30 30 30 29 29 29 28 28 28 27 26 25 25 25
64 64 64 64 64 63 62 61 59 57 55 53 52 50 49 47 44 43 42 41 40 39 38 36 34 32 30 30 30 30 29 29 28 28 28 27 27 27 26 25 24 24 24 24
63 63 63 63 62 61 60 58 55 53 51 49 47 46 46 45 43 41 39 39 38 37 35 33 31 29 29 29 29 28 28 27 27 27 26 26 25 25 24 24 23 23 23 23
62 62 62 61 60 59 57 54 52 50 48 46 44 43 43 41 40 39 38 37 36 35 33 30 29 28 28 28 28 27 26 26 25 25 25 24 24 24 23 22 22 22 21 21
61 60 59 58 56 54 53 51 49 47 45 44 42 40 39 38 37 37 36 35 34 33 31 29 27 27 27 27 26 25 25 24 24 24 23 23 23 22 21 21 20 20 19 19
Wind_Direction
286 288 289 292 290 288 290 294 298 302 303 304 305 305 305 305 305 305 305 305 305 305 305 304 303 303 303 302 302 301 300 299 298 297 296 296 295 293 292 290 288 287 285 284
285 287 289 290 287 286 288 292 297 300 302 304 305 305 305 305 305 306 306 306 305 305 305 304 304 304 304 303 302 302 301 300 299 299 298 297 295 294 292 290 289 287 286 284
285 285 286 286 285 286 288 292 297 299 301 302 303 304 305 305 306 306 306 306 306 306 306 305 305 305 305 304 303 302 302 301 300 299 299 298 296 294 293 291 290 289 287 286
286 286 285 287 286 288 291 294 298 299 300 302 304 305 305 306 306 306 306 306 306 306 306 306 306 306 305 305 304 304 303 302 301 300 299 298 296 295 294 293 292 291 289 287
288 288 287 286 288 292 295 297 299 300 302 303 304 305 305 306 306 306 307 307 307 307 307 307 307 307 307 306 306 305 305 304 303 301 300 299 298 297 295 294 293 292 290 288
287 288 290 292 292 295 297 299 300 302 303 304 304 304 305 306 306 307 307 308 308 308 308 308 308 308 307 307 307 306 306 305 304 303 301 300 299 298 297 296 294 292 291 290
285 287 290 293 296 298 300 302 303 303 304 304 305 306 307 307 308 308 308 308 309 309 309 309 309 309 309 309 308 308 308 307 305 304 303 302 301 301 300 298 296 294 292 291
285 288 291 294 297 299 301 302 302 303 304 305 306 307 307 308 308 308 308 309 309 310 310 310 310 310 310 310 309 309 309 308 306 306 305 304 303 302 301 299 298 296 295 294
287 290 293 295 298 300 301 302 303 304 305 305 306 306 307 307 307 308 309 309 310 311 311 311 311 311 311 311 310 310 310 309 308 307 306 305 304 303 302 301 300 298 297 295
288 291 294 296 299 300 301 302 303 304 304 305 306 306 306 307 307 308 309 310 311 311 312 312 312 311 311 311 311 311 311 310 309 308 308 307 306 305 304 303 302 301 299 298
289 293 295 297 298 300 301 302 302 303 304 304 305 305 306 307 308 309 310 311 312 313 313 313 313 312 311 311 311 312 312 312 311 310 310 308 307 306 306 305 304 303 301 300
291 293 295 297 298 299 300 300 301 302 303 304 305 306 307 308 309 310 311 312 312 313 313 313 313 313 312 311 312 312 313 313 313 312 311 310 309 308 307 307 306 305 304 302
292 294 296 297 298 298 299 300 302 303 304 305 306 307 308 309 310 311 312 312 313 314 314 314 313 313 312 312 313 313 313 313 313 313 313 312 311 311 309 308 307 307 306 304
293 295 296 297 298 299 300 302 303 304 305 306 307 308 309 310 311 311 312 312 313 314 314 314 314 313 313 313 313 314 314 314 314 315 315 314 313 313 313 311 309 309 308 306
294 295 296 297 298 300 301 302 303 304 305 306 307 308 309 310 311 312 312 312 313 314 314 313 313 313 313 313 313 314 314 314 315 315 315 315 315 315 314 313 312 311 310 308
294 295 296 298 299 300 301 302 303 304 305 307 308 309 310 311 311 312 312 313 313 314 314 313 313 313 313 313 313 314 314 314 315 315 316 316 317 316 316 315 315 314 312 310
294 295 297 298 299 301 302 303 304 305 306 307 308 309 310 311 311 312 312 312 313 313 313 314 314 314 314 314 313 314 314 314 315 315 315 316 317 317 317 317 317 316 314 313
295 296 298 299 300 301 302 303 304 305 307 308 309 310 310 311 311 312 312 312 312 313 313 313 314 314 314 314 314 314 314 315 315 315 316 317 318 319 319 319 319 318 317 317
296 298 299 300 300 301 302 303 304 305 306 308 308 309 310 311 311 312 312 312 312 312 313 313 313 313 314 314 314 314 315 315 315 316 317 318 319 320 321 321 320 319 319 319
297 298 299 300 301 302 303 303 304 305 307 307 308 308 309 310 310 311 311 312 313 313 314 314 314 314 315 315 315 315 315 316 317 317 318 319 321 322 322 322 321 321 321 321
297 298 299 300 301 302 303 304 304 305 306 307 307 308 309 310 310 311 311 312 313 314 315 315 315 315 316 316 317 317 317 318 318 319 320 322 323 324 324 323 323 323 324 325
298 299 300 300 301 302 303 304 304 305 306 306 307 308 308 309 310 311 311 312 314 315 315 315 315 316 317 317 318 318 319 319 320 320 322 323 324 325 325 325 324 325 326 328
298 299 300 300 301 302 303 303 304 305 305 306 306 307 308 309 310 311 312 312 313 315 315 315 315 315 316 317 318 318 319 319 320 321 323 324 324 326 327 327 327 327 329 330
298 299 300 301 302 302 303 303 304 304 305 305 306 306 307 308 310 310 311 313 314 315 315 315 315 316 316 317 318 318 319 319 320 322 323 324 325 327 329 329 329 329 330 331
298 299 300 301 301 302 302 302 303 303 303 303 304 305 305 307 308 309 310 311 313 314 315 315 316 317 317 318 319 319 320 321 322 323 325 325 327 328 330 331 331 332 332 334
298 299 299 300 300 301 301 302 302 302 302 302 302 303 303 304 304 306 308 310 312 313 313 314 315 317 318 319 320 321 321 322 324 325 327 328 329 330 332 333 333 334 336 339
297 298 298 299 299 300 300 301 301 302 301 301 302 302 301 301 302 304 306 308 310 311 311 312 314 316 318 320 321 322 322 324 325 327 329 330 331 332 334 335 336 338 340 343
Height
5773 5770 5767 5766 5764 5761 5757 5753 5750 5749 5745 5742 5737 5732 5727 5721 5716 5709 5703 5696 5689 5681 5674 5666 5657 5649 5640 5631 5622 5612 5603 5594 5585 5576 5567 5558 5550 5542 5534 5527 5520 5514 5508 5503
5766 5762 5759 5758 5756 5753 5750 5747 5743 5740 5737 5732 5727 5722 5716 5710 5703 5697 5689 5682 5674 5666 5658 5649 5640 5631 5621 5612 5602 5591 5582 5572 5562 5553 5545 5536 5527 5519 5512 5504 5498 5491 5486 5480
5757 5755 5752 5751 5749 5745 5742 5739 5736 5732 5728 5722 5717 5711 5704 5697 5690 5683 5675 5667 5659 5650 5640 5631 5621 5611 5601 5591 5580 5570 5560 5550 5540 5530 5522 5514 5505 5497 5490 5483 5477 5471 5465 5460
5747 5747 5745 5745 5740 5736 5733 5730 5727 5721 5716 5711 5705 5698 5691 5683 5676 5668 5660 5651 5642 5632 5622 5612 5601 5591 5581 5570 5559 5548 5538 5528 5518 5509 5501 5493 5485 5477 5470 5463 5457 5451 5445 5440
5737 5735 5735 5735 5731 5727 5723 5720 5716 5710 5705 5699 5692 5685 5678 5670 5661 5652 5643 5634 5624 5613 5603 5592 5581 5570 5559 5549 5537 5527 5517 5507 5498 5488 5480 5473 5465 5458 5451 5444 5438 5432 5427 5421
5728 5725 5724 5724 5720 5716 5713 5708 5703 5698 5692 5685 5678 5672 5666 5656 5646 5636 5626 5616 5605 5595 5583 5571 5560 5549 5538 5528 5517 5507 5497 5488 5479 5469 5461 5454 5447 5440 5433 5426 5420 5415 5409 5404
5720 5715 5714 5712 5708 5704 5701 5697 5690 5683 5677 5670 5663 5655 5647 5638 5628 5618 5608 5597 5586 5576 5564 5551 5539 5529 5519 5508 5498 5488 5479 5470 5461 5453 5444 5437 5430 5423 5416 5410 5404 5399 5393 5389
5710 5707 5706 5701 5697 5693 5688 5682 5676 5669 5662 5655 5647 5638 5630 5621 5611 5601 5590 5580 5568 5558 5547 5534 5521 5509 5501 5491 5481 5472 5463 5454 5446 5438 5429 5422 5415 5408 5401 5395 5389 5384 5379 5374
5701 5699 5694 5689 5685 5680 5674 5668 5661 5655 5647 5640 5632 5623 5614 5605 5595 5584 5573 5562 5550 5539 5529 5518 5505 5493 5482 5474 5464 5456 5448 5439 5431 5423 5415 5408 5400 5394 5387 5381 5375 5370 5364 5360
5689 5686 5681 5677 5672 5667 5661 5654 5647 5639 5632 5624 5616 5607 5598 5588 5577 5567 5556 5544 5532 5521 5511 5501 5491 5479 5467 5458 5449 5441 5433 5425 5417 5409 5402 5395 5387 5380 5374 5368 5362 5357 5352 5347
5678 5674 5669 5665 5659 5653 5647 5640 5632 5625 5617 5608 5600 5591 5581 5571 5560 5549 5538 5527 5515 5504 5494 5484 5475 5465 5454 5444 5435 5428 5420 5412 5404 5397 5389 5383 5376 5369 5362 5357 5349 5344 5339 5334
5666 5662 5657 5652 5646 5640 5633 5626 5618 5611 5602 5592 5582 5573 5564 5553 5542 5531 5521 5510 5500 5490 5479 5469 5460 5451 5441 5432 5423 5414 5407 5400 5392 5385 5378 5371 5365 5359 5352 5346 5340 5333 5328 5322
5652 5648 5643 5638 5631 5624 5618 5610 5602 5594 5585 5576 5566 5556 5546 5536 5526 5515 5505 5494 5484 5475 5465 5455 5446 5437 5428 5419 5411 5403 5395 5387 5381 5374 5367 5360 5353 5347 5342 5337 5330 5323 5317 5312
5639 5634 5629 5622 5616 5609 5601 5594 5586 5577 5568 5558 5549 5539 5529 5519 5510 5500 5490 5479 5470 5460 5451 5441 5433 5425 5416 5407 5400 5392 5384 5377 5369 5363 5356 5349 5343 5337 5331 5325 5320 5315 5308 5302
5624 5619 5613 5607 5600 5592 5585 5577 5569 5561 5552 5543 5533 5523 5513 5504 5495 5486 5476 5465 5456 5447 5438 5429 5420 5413 5404 5396 5389 5381 5374 5367 5360 5353 5347 5340 5334 5327 5321 5315 5310 5304 5299 5294
5609 5603 5597 5591 5584 5577 5569 5560 5553 5545 5536 5527 5518 5509 5499 5489 5480 5471 5462 5452 5442 5434 5425 5416 5409 5401 5393 5385 5378 5371 5364 5357 5350 5344 5338 5331 5325 5319 5313 5307 5301 5295 5290 5284
5594 5588 5581 5575 5568 5561 5552 5544 5535 5527 5519 5510 5502 5493 5484 5475 5467 5458 5449 5440 5430 5421 5412 5404 5396 5389 5381 5374 5367 5361 5354 5348 5342 5335 5329 5323 5317 5310 5304 5299 5293 5287 5281 5276
5578 5571 5565 5558 5551 5544 5536 5528 5519 5510 5502 5493 5485 5477 5469 5460 5452 5444 5436 5427 5419 5411 5402 5393 5385 5378 5371 5364 5357 5351 5345 5339 5333 5327 5321 5315 5309 5303 5297 5291 5285 5280 5274 5269
5561 5555 5548 5541 5534 5526 5519 5511 5503 5495 5486 5477 5469 5462 5454 5446 5437 5429 5421 5413 5405 5399 5392 5384 5376 5368 5361 5354 5348 5342 5336 5331 5325 5319 5313 5308 5302 5296 5290 5284 5278 5273 5267 5262
5545 5539 5532 5525 5517 5509 5501 5494 5486 5479 5471 5462 5454 5447 5440 5432 5423 5415 5408 5401 5393 5385 5379 5372 5365 5359 5352 5346 5339 5334 5328 5323 5317 5312 5306 5301 5295 5289 5284 5278 5272 5267 5261 5256
5528 5521 5514 5507 5501 5493 5485 5477 5469 5462 5455 5447 5439 5432 5425 5418 5410 5402 5395 5390 5384 5376 5369 5362 5356 5349 5343 5337 5332 5326 5321 5315 5310 5305 5300 5294 5289 5283 5278 5272 5266 5261 5256 5251
5511 5504 5497 5490 5483 5477 5470 5461 5453 5446 5439 5432 5425 5417 5410 5405 5398 5392 5385 5378 5372 5366 5360 5353 5347 5341 5335 5330 5325 5319 5314 5309 5304 5299 5293 5288 5283 5278 5272 5266 5261 5256 5251 5246
5493 5486 5479 5472 5465 5459 5453 5446 5438 5430 5424 5417 5411 5404 5398 5392 5386 5380 5375 5369 5362 5357 5351 5345 5339 5333 5328 5323 5318 5313 5308 5303 5298 5293 5288 5282 5277 5272 5267 5261 5256 5251 5246 5241
5476 5469 5463 5456 5449 5442 5437 5431 5424 5417 5410 5404 5398 5391 5385 5380 5376 5370 5364 5358 5353 5347 5342 5336 5331 5326 5321 5316 5311 5307 5302 5297 5292 5287 5282 5277 5272 5267 5262 5257 5252 5247 5242 5237
5458 5452 5446 5439 5433 5426 5420 5415 5410 5404 5398 5392 5386 5380 5374 5369 5364 5360 5355 5350 5344 5339 5334 5329 5324 5319 5314 5310 5305 5300 5296 5291 5286 5281 5277 5272 5267 5262 5257 5252 5248 5243 5238 5233
5441 5435 5429 5423 5416 5410 5405 5400 5395 5390 5384 5380 5375 5370 5364 5359 5354 5350 5345 5341 5336 5331 5326 5322 5317 5313 5308 5304 5299 5295 5290 5286 5281 5276 5272 5267 5263 5258 5253 5249 5244 5240 5235 5230
5425 5419 5413 5408 5402 5396 5390 5385 5380 5376 5371 5366 5362 5358 5353 5349 5345 5340 5336 5332 5328 5323 5319 5315 5311 5307 5303 5298 5294 5290 5285 5281 5277 5272 5268 5263 5259 5254 5250 5245 5241 5237 5233 5228